Time,TemperatureF,DewpointF,PressureIn,WindDirection,WindDirectionDegrees,WindSpeedMPH,WindSpeedGustMPH,Humidity,HourlyPrecipIn,Conditions,Clouds,dailyrainin,SoftwareType,DateUTC
2013-01-22 00:00:00,27.0,17.0,29.79,WSW,240,40.0,-999.0,65,-99.99,,,-99.99,,2013-01-22 05:00:00,
2013-01-22 00:22:00,27.0,17.0,29.79,WSW,240,40.0,-999.0,65,-99.99,,,-99.99,,2013-01-22 05:22:00,
2013-01-22 00:32:00,27.0,17.0,29.79,WSW,240,40.0,-999.0,65,-99.99,,,-99.99,,2013-01-22 05:32:00,
2013-01-22 00:42:00,27.0,17.0,29.79,WSW,240,40.0,-999.0,65,-99.99,,,-99.99,,2013-01-22 05:42:00,
2013-01-22 00:52:00,27.0,17.0,29.79,WSW,240,40.0,-999.0,65,-99.99,,,-99.99,,2013-01-22 05:52:00,
2013-01-22 01:00:00,27.0,15.0,29.83,West,260,39.0,-999.0,60,-99.99,,,-99.99,,2013-01-22 06:00:00,
2013-01-22 01:22:00,27.0,15.0,29.83,West,260,39.0,-999.0,60,-99.99,,,-99.99,,2013-01-22 06:22:00,
2013-01-22 01:32:00,27.0,15.0,29.83,West,260,39.0,-999.0,60,-99.99,,,-99.99,,2013-01-22 06:32:00,
2013-01-22 01:42:00,27.0,15.0,29.83,West,260,39.0,-999.0,60,-99.99,,,-99.99,,2013-01-22 06:42:00,
2013-01-22 01:52:00,27.0,15.0,29.83,West,260,39.0,-999.0,60,-99.99,,,-99.99,,2013-01-22 06:52:00,
2013-01-22 02:00:00,27.0,16.0,29.85,West,260,21.0,-999.0,62,-99.99,,,-99.99,,2013-01-22 07:00:00,
2013-01-22 02:22:00,27.0,16.0,29.85,West,260,21.0,-999.0,62,-99.99,,,-99.99,,2013-01-22 07:22:00,
2013-01-22 02:32:00,27.0,16.0,29.85,West,260,21.0,-999.0,62,-99.99,,,-99.99,,2013-01-22 07:32:00,
2013-01-22 02:42:00,27.0,16.0,29.85,West,260,21.0,-999.0,62,-99.99,,,-99.99,,2013-01-22 07:42:00,
2013-01-22 02:52:00,27.0,16.0,29.85,West,260,21.0,-999.0,62,-99.99,,,-99.99,,2013-01-22 07:52:00,
2013-01-22 03:00:00,26.0,17.0,29.85,WSW,250,18.0,-999.0,66,-99.99,,,-99.99,,2013-01-22 08:00:00,
2013-01-22 03:22:00,26.0,17.0,29.85,WSW,250,18.0,-999.0,66,-99.99,,,-99.99,,2013-01-22 08:22:00,
2013-01-22 03:32:00,26.0,17.0,29.85,WSW,250,18.0,-999.0,66,-99.99,,,-99.99,,2013-01-22 08:32:00,
2013-01-22 03:42:00,26.0,17.0,29.85,WSW,250,18.0,-999.0,66,-99.99,,,-99.99,,2013-01-22 08:42:00,
2013-01-22 03:52:00,26.0,17.0,29.85,WSW,250,18.0,-999.0,66,-99.99,,,-99.99,,2013-01-22 08:52:00,
2013-01-22 04:00:00,26.0,15.0,29.85,WSW,250,21.0,-999.0,63,-99.99,,,-99.99,,2013-01-22 09:00:00,
2013-01-22 04:22:00,26.0,15.0,29.85,WSW,250,21.0,-999.0,63,-99.99,,,-99.99,,2013-01-22 09:22:00,
2013-01-22 04:32:00,26.0,15.0,29.85,WSW,250,21.0,-999.0,63,-99.99,,,-99.99,,2013-01-22 09:32:00,
2013-01-22 04:42:00,26.0,15.0,29.85,WSW,250,21.0,-999.0,63,-99.99,,,-99.99,,2013-01-22 09:42:00,
2013-01-22 04:52:00,26.0,15.0,29.85,WSW,250,21.0,-999.0,63,-99.99,,,-99.99,,2013-01-22 09:52:00,
2013-01-22 05:00:00,26.0,15.0,29.85,WSW,250,17.0,-999.0,64,-99.99,,,-99.99,,2013-01-22 10:00:00,
2013-01-22 05:22:00,26.0,15.0,29.85,WSW,250,17.0,-999.0,64,-99.99,,,-99.99,,2013-01-22 10:22:00,
2013-01-22 05:32:00,26.0,15.0,29.85,WSW,250,17.0,-999.0,64,-99.99,,,-99.99,,2013-01-22 10:32:00,
2013-01-22 05:42:00,26.0,15.0,29.85,WSW,250,17.0,-999.0,64,-99.99,,,-99.99,,2013-01-22 10:42:00,
2013-01-22 05:52:00,26.0,15.0,29.85,WSW,250,17.0,-999.0,64,-99.99,,,-99.99,,2013-01-22 10:52:00,
2013-01-22 06:00:00,25.0,15.0,29.83,SW,220,9.0,-999.0,63,-99.99,,,-99.99,,2013-01-22 11:00:00,
2013-01-22 06:22:00,25.0,15.0,29.83,SW,220,9.0,-999.0,63,-99.99,,,-99.99,,2013-01-22 11:22:00,
2013-01-22 06:32:00,25.0,15.0,29.83,SW,220,9.0,-999.0,63,-99.99,,,-99.99,,2013-01-22 11:32:00,
2013-01-22 06:42:00,25.0,15.0,29.83,SW,220,9.0,-999.0,63,-99.99,,,-99.99,,2013-01-22 11:42:00,
2013-01-22 06:52:00,25.0,15.0,29.83,SW,220,9.0,-999.0,63,-99.99,,,-99.99,,2013-01-22 11:52:00,
2013-01-22 07:00:00,25.0,15.0,29.80,SW,220,7.0,-999.0,66,-99.99,,,-99.99,,2013-01-22 12:00:00,
2013-01-22 07:22:00,25.0,15.0,29.80,SW,220,7.0,-999.0,66,-99.99,,,-99.99,,2013-01-22 12:22:00,
2013-01-22 07:32:00,25.0,15.0,29.80,SW,220,7.0,-999.0,66,-99.99,,,-99.99,,2013-01-22 12:32:00,
2013-01-22 07:42:00,25.0,15.0,29.80,SW,220,7.0,-999.0,66,-99.99,,,-99.99,,2013-01-22 12:42:00,
2013-01-22 07:52:00,25.0,15.0,29.80,SW,220,7.0,-999.0,66,-99.99,,,-99.99,,2013-01-22 12:52:00,
2013-01-22 08:00:00,25.0,12.0,29.80,SW,230,11.0,-999.0,57,-99.99,,,-99.99,,2013-01-22 13:00:00,
2013-01-22 08:22:00,25.0,12.0,29.80,SW,230,11.0,-999.0,57,-99.99,,,-99.99,,2013-01-22 13:22:00,
2013-01-22 08:32:00,25.0,12.0,29.80,SW,230,11.0,-999.0,57,-99.99,,,-99.99,,2013-01-22 13:32:00,
2013-01-22 08:42:00,25.0,12.0,29.80,SW,230,11.0,-999.0,57,-99.99,,,-99.99,,2013-01-22 13:42:00,
2013-01-22 08:52:00,25.0,12.0,29.80,SW,230,11.0,-999.0,57,-99.99,,,-99.99,,2013-01-22 13:52:00,
2013-01-22 09:00:00,25.0,12.0,29.81,WSW,250,11.0,-999.0,57,-99.99,,,-99.99,,2013-01-22 14:00:00,
2013-01-22 09:22:00,25.0,12.0,29.81,WSW,250,11.0,-999.0,57,-99.99,,,-99.99,,2013-01-22 14:22:00,
2013-01-22 09:33:00,25.0,12.0,29.81,WSW,250,11.0,-999.0,57,-99.99,,,-99.99,,2013-01-22 14:33:00,
2013-01-22 09:42:00,25.0,12.0,29.81,WSW,250,11.0,-999.0,57,-99.99,,,-99.99,,2013-01-22 14:42:00,
2013-01-22 09:52:00,25.0,12.0,29.81,WSW,250,11.0,-999.0,57,-99.99,,,-99.99,,2013-01-22 14:52:00,
2013-01-22 10:00:00,24.0,13.0,29.71,SSW,210,3.0,-999.0,62,-99.99,,,-99.99,,2013-01-22 15:00:00,
2013-01-22 10:22:00,24.0,13.0,29.71,SSW,210,3.0,-999.0,62,-99.99,,,-99.99,,2013-01-22 15:22:00,
2013-01-22 10:32:00,24.0,13.0,29.71,SSW,210,3.0,-999.0,62,-99.99,,,-99.99,,2013-01-22 15:32:00,
2013-01-22 10:42:00,24.0,13.0,29.71,SSW,210,3.0,-999.0,62,-99.99,,,-99.99,,2013-01-22 15:42:00,
2013-01-22 10:52:00,24.0,13.0,29.71,SSW,210,3.0,-999.0,62,-99.99,,,-99.99,,2013-01-22 15:52:00,
2013-01-22 11:00:00,20.0,20.0,29.67,South,180,5.0,-999.0,97,-99.99,,,-99.99,,2013-01-22 16:00:00,
2013-01-22 11:22:00,20.0,20.0,29.67,South,180,5.0,-999.0,97,-99.99,,,-99.99,,2013-01-22 16:22:00,
2013-01-22 11:32:00,20.0,20.0,29.67,South,180,5.0,-999.0,97,-99.99,,,-99.99,,2013-01-22 16:32:00,
2013-01-22 11:42:00,20.0,20.0,29.67,South,180,5.0,-999.0,97,-99.99,,,-99.99,,2013-01-22 16:42:00,
2013-01-22 11:52:00,20.0,20.0,29.67,South,180,5.0,-999.0,97,-99.99,,,-99.99,,2013-01-22 16:52:00,
2013-01-22 12:00:00,20.0,19.0,29.59,NW,310,3.0,-999.0,99,-99.99,,,-99.99,,2013-01-22 17:00:00,
2013-01-22 12:22:00,20.0,19.0,29.59,NW,310,3.0,-999.0,99,-99.99,,,-99.99,,2013-01-22 17:22:00,
2013-01-22 12:32:00,20.0,19.0,29.59,NW,310,3.0,-999.0,99,-99.99,,,-99.99,,2013-01-22 17:32:00,
2013-01-22 12:42:00,20.0,19.0,29.59,NW,310,3.0,-999.0,99,-99.99,,,-99.99,,2013-01-22 17:42:00,
2013-01-22 12:53:00,20.0,19.0,29.59,NW,310,3.0,-999.0,99,-99.99,,,-99.99,,2013-01-22 17:53:00,
2013-01-22 13:00:00,19.0,19.0,29.55,North,350,9.0,-999.0,99,-99.99,,,-99.99,,2013-01-22 18:00:00,
2013-01-22 13:22:00,19.0,19.0,29.55,North,350,9.0,-999.0,99,-99.99,,,-99.99,,2013-01-22 18:22:00,
2013-01-22 13:33:00,19.0,19.0,29.55,North,350,9.0,-999.0,99,-99.99,,,-99.99,,2013-01-22 18:33:00,
2013-01-22 13:42:00,19.0,19.0,29.55,North,350,9.0,-999.0,99,-99.99,,,-99.99,,2013-01-22 18:42:00,
2013-01-22 13:53:00,19.0,19.0,29.55,North,350,9.0,-999.0,99,-99.99,,,-99.99,,2013-01-22 18:53:00,
2013-01-22 14:00:00,19.0,19.0,29.50,NNW,340,24.0,-999.0,100,-99.99,,,-99.99,,2013-01-22 19:00:00,
2013-01-22 14:22:00,19.0,19.0,29.50,NNW,340,24.0,-999.0,100,-99.99,,,-99.99,,2013-01-22 19:22:00,
2013-01-22 14:32:00,19.0,19.0,29.50,NNW,340,24.0,-999.0,100,-99.99,,,-99.99,,2013-01-22 19:32:00,
2013-01-22 14:42:00,19.0,19.0,29.50,NNW,340,24.0,-999.0,100,-99.99,,,-99.99,,2013-01-22 19:42:00,
2013-01-22 14:53:00,19.0,19.0,29.50,NNW,340,24.0,-999.0,100,-99.99,,,-99.99,,2013-01-22 19:53:00,
2013-01-22 15:00:00,18.0,17.0,29.50,NNW,330,21.0,-999.0,96,-99.99,,,-99.99,,2013-01-22 20:00:00,
2013-01-22 15:22:00,18.0,17.0,29.50,NNW,330,21.0,-999.0,96,-99.99,,,-99.99,,2013-01-22 20:22:00,
2013-01-22 15:32:00,18.0,17.0,29.50,NNW,330,21.0,-999.0,96,-99.99,,,-99.99,,2013-01-22 20:32:00,
2013-01-22 15:42:00,18.0,17.0,29.50,NNW,330,21.0,-999.0,96,-99.99,,,-99.99,,2013-01-22 20:42:00,
2013-01-22 15:52:00,18.0,17.0,29.50,NNW,330,21.0,-999.0,96,-99.99,,,-99.99,,2013-01-22 20:52:00,
2013-01-22 16:00:00,18.0,14.0,29.47,NNW,330,16.0,-999.0,84,-99.99,,,-99.99,,2013-01-22 21:00:00,
2013-01-22 16:22:00,18.0,14.0,29.47,NNW,330,16.0,-999.0,84,-99.99,,,-99.99,,2013-01-22 21:22:00,
2013-01-22 16:33:00,18.0,14.0,29.47,NNW,330,16.0,-999.0,84,-99.99,,,-99.99,,2013-01-22 21:33:00,
2013-01-22 16:42:00,18.0,14.0,29.47,NNW,330,16.0,-999.0,84,-99.99,,,-99.99,,2013-01-22 21:42:00,
2013-01-22 16:52:00,18.0,14.0,29.47,NNW,330,16.0,-999.0,84,-99.99,,,-99.99,,2013-01-22 21:52:00,
2013-01-22 17:00:00,19.0,11.0,29.47,NW,310,25.0,-999.0,71,-99.99,,,-99.99,,2013-01-22 22:00:00,
2013-01-22 17:22:00,19.0,11.0,29.47,NW,310,25.0,-999.0,71,-99.99,,,-99.99,,2013-01-22 22:22:00,
2013-01-22 17:32:00,19.0,11.0,29.47,NW,310,25.0,-999.0,71,-99.99,,,-99.99,,2013-01-22 22:32:00,
2013-01-22 17:42:00,19.0,11.0,29.47,NW,310,25.0,-999.0,71,-99.99,,,-99.99,,2013-01-22 22:42:00,
2013-01-22 17:52:00,19.0,11.0,29.47,NW,310,25.0,-999.0,71,-99.99,,,-99.99,,2013-01-22 22:52:00,
2013-01-22 18:00:00,17.0,8.0,29.49,WNW,290,25.0,-999.0,67,-99.99,,,-99.99,,2013-01-22 23:00:00,
2013-01-22 18:22:00,17.0,8.0,29.49,WNW,290,25.0,-999.0,67,-99.99,,,-99.99,,2013-01-22 23:22:00,
2013-01-22 18:32:00,17.0,8.0,29.49,WNW,290,25.0,-999.0,67,-99.99,,,-99.99,,2013-01-22 23:32:00,
2013-01-22 18:42:00,17.0,8.0,29.49,WNW,290,25.0,-999.0,67,-99.99,,,-99.99,,2013-01-22 23:42:00,
2013-01-22 18:52:00,17.0,8.0,29.49,WNW,290,25.0,-999.0,67,-99.99,,,-99.99,,2013-01-22 23:52:00,
2013-01-22 19:00:00,16.0,6.0,29.51,WNW,290,26.0,-999.0,64,-99.99,,,-99.99,,2013-01-23 00:00:00,
2013-01-22 19:22:00,16.0,6.0,29.51,WNW,290,26.0,-999.0,64,-99.99,,,-99.99,,2013-01-23 00:22:00,
2013-01-22 19:32:00,16.0,6.0,29.51,WNW,290,26.0,-999.0,64,-99.99,,,-99.99,,2013-01-23 00:32:00,
2013-01-22 19:42:00,16.0,6.0,29.51,WNW,290,26.0,-999.0,64,-99.99,,,-99.99,,2013-01-23 00:42:00,
2013-01-22 19:52:00,16.0,6.0,29.51,WNW,290,26.0,-999.0,64,-99.99,,,-99.99,,2013-01-23 00:52:00,
2013-01-22 20:00:00,15.0,5.0,29.53,West,280,28.0,-999.0,64,-99.99,,,-99.99,,2013-01-23 01:00:00,
2013-01-22 20:22:00,15.0,5.0,29.53,West,280,28.0,-999.0,64,-99.99,,,-99.99,,2013-01-23 01:22:00,
2013-01-22 20:32:00,15.0,5.0,29.53,West,280,28.0,-999.0,64,-99.99,,,-99.99,,2013-01-23 01:32:00,
2013-01-22 20:42:00,15.0,5.0,29.53,West,280,28.0,-999.0,64,-99.99,,,-99.99,,2013-01-23 01:42:00,
2013-01-22 20:52:00,15.0,5.0,29.53,West,280,28.0,-999.0,64,-99.99,,,-99.99,,2013-01-23 01:52:00,
2013-01-22 21:00:00,13.0,4.0,29.55,West,270,23.0,-999.0,65,-99.99,,,-99.99,,2013-01-23 02:00:00,
2013-01-22 21:22:00,13.0,4.0,29.55,West,270,23.0,-999.0,65,-99.99,,,-99.99,,2013-01-23 02:22:00,
2013-01-22 21:32:00,13.0,4.0,29.55,West,270,23.0,-999.0,65,-99.99,,,-99.99,,2013-01-23 02:32:00,
2013-01-22 21:42:00,13.0,4.0,29.55,West,270,23.0,-999.0,65,-99.99,,,-99.99,,2013-01-23 02:42:00,
2013-01-22 21:52:00,13.0,4.0,29.55,West,270,23.0,-999.0,65,-99.99,,,-99.99,,2013-01-23 02:52:00,
2013-01-22 22:00:00,14.0,4.0,29.54,WSW,250,16.0,-999.0,64,-99.99,,,-99.99,,2013-01-23 03:00:00,
2013-01-22 22:22:00,14.0,4.0,29.54,WSW,250,16.0,-999.0,64,-99.99,,,-99.99,,2013-01-23 03:22:00,
2013-01-22 22:32:00,14.0,4.0,29.54,WSW,250,16.0,-999.0,64,-99.99,,,-99.99,,2013-01-23 03:32:00,
2013-01-22 22:42:00,14.0,4.0,29.54,WSW,250,16.0,-999.0,64,-99.99,,,-99.99,,2013-01-23 03:42:00,
2013-01-22 22:52:00,14.0,4.0,29.54,WSW,250,16.0,-999.0,64,-99.99,,,-99.99,,2013-01-23 03:52:00,
2013-01-22 23:00:00,12.0,5.0,29.54,West,270,21.0,-999.0,72,-99.99,,,-99.99,,2013-01-23 04:00:00,
2013-01-22 23:22:00,12.0,5.0,29.54,West,270,21.0,-999.0,72,-99.99,,,-99.99,,2013-01-23 04:22:00,
2013-01-22 23:32:00,12.0,5.0,29.54,West,270,21.0,-999.0,72,-99.99,,,-99.99,,2013-01-23 04:32:00,
2013-01-22 23:42:00,12.0,5.0,29.54,West,270,21.0,-999.0,72,-99.99,,,-99.99,,2013-01-23 04:42:00,
2013-01-22 23:52:00,12.0,5.0,29.54,West,270,21.0,-999.0,72,-99.99,,,-99.99,,2013-01-23 04:52:00,